When you browse on this site, cookies collect data to enhance your experience and personalize the content and advertising you see.
Visit our Privacy Policy to learn more. By continuing to use the site, you agree to this use of cookies and data.
  • In Romania
  • List of Countries
  • For 7 days
  • Water Temperature
  • Satellite Maps
  • Weather Map
  • Weather Widgets
  • user-avatar
    Login

    Hourly Weather Włodawa

    Today, 24 May, Friday

    Time Temperature Precipitation Wind Pressure Humidity
    00:00 +15°C° 0.2 mm 2 mps 743 mmHg 95%
    01:00 +13°C° 0.2 mm 3 mps 743 mmHg 96%
    02:00 +13°C° 0.2 mm 3 mps 743 mmHg 98%
    03:00 +13°C° 0.1 mm 3 mps 743 mmHg 97%
    04:00 +13°C° 0.1 mm 3 mps 743 mmHg 97%
    05:00 +13°C° 0.1 mm 3 mps 743 mmHg 97%
    06:00 +13°C° 0 mm 3 mps 743 mmHg 96%
    07:00 +13°C° 0 mm 3 mps 744 mmHg 95%
    08:00 +13°C° 0 mm 3 mps 744 mmHg 93%
    09:00 +14°C° 0 mm 3 mps 744 mmHg 91%
    10:00 +14°C° 0 mm 3 mps 744 mmHg 89%
    11:00 +16°C° 0 mm 3 mps 744 mmHg 86%
    12:00 +17°C° 0 mm 3 mps 744 mmHg 82%
    13:00 +18°C° 0 mm 4 mps 744 mmHg 78%
    14:00 +19°C° 0 mm 4 mps 744 mmHg 74%
    15:00 +19°C° 0 mm 4 mps 743 mmHg 75%
    16:00 +19°C° 0 mm 4 mps 743 mmHg 75%
    17:00 +19°C° 0 mm 3 mps 743 mmHg 75%
    18:00 +18°C° 0 mm 3 mps 743 mmHg 79%
    19:00 +17°C° 0 mm 3 mps 743 mmHg 84%
    20:00 +16°C° 0 mm 2 mps 743 mmHg 88%
    21:00 +16°C° 0 mm 2 mps 743 mmHg 90%
    22:00 +15°C° 0 mm 2 mps 743 mmHg 91%
    23:00 +14°C° 0 mm 2 mps 743 mmHg 93%

    Tomorrow, 25 May, Saturday

    Time Temperature Precipitation Wind Pressure Humidity
    00:00 +13°C° 0 mm 2 mps 743 mmHg 94%
    01:00 +13°C° 0 mm 2 mps 742 mmHg 94%
    02:00 +13°C° 0 mm 2 mps 742 mmHg 95%
    03:00 +12°C° 0 mm 2 mps 742 mmHg 95%
    04:00 +12°C° 0 mm 2 mps 742 mmHg 95%
    05:00 +12°C° 0 mm 2 mps 742 mmHg 96%
    06:00 +14°C° 0 mm 2 mps 743 mmHg 90%
    07:00 +15°C° 0 mm 2 mps 743 mmHg 85%
    08:00 +17°C° 0 mm 3 mps 743 mmHg 79%
    09:00 +18°C° 0 mm 3 mps 743 mmHg 74%
    10:00 +19°C° 0 mm 3 mps 743 mmHg 69%
    11:00 +20°C° 0 mm 4 mps 743 mmHg 64%
    12:00 +21°C° 0 mm 4 mps 743 mmHg 60%
    13:00 +21°C° 0 mm 4 mps 742 mmHg 57%
    14:00 +22°C° 0 mm 5 mps 742 mmHg 54%
    15:00 +22°C° 0 mm 4 mps 742 mmHg 55%
    16:00 +22°C° 0 mm 4 mps 742 mmHg 56%
    17:00 +22°C° 0 mm 4 mps 742 mmHg 57%
    18:00 +20°C° 0.1 mm 3 mps 742 mmHg 65%
    19:00 +19°C° 0.1 mm 3 mps 742 mmHg 74%
    20:00 +17°C° 0.1 mm 2 mps 742 mmHg 82%
    21:00 +16°C° 0 mm 2 mps 742 mmHg 85%
    22:00 +15°C° 0 mm 2 mps 742 mmHg 88%
    23:00 +14°C° 0 mm 2 mps 743 mmHg 91%

    Day after tomorrow, 26 May, Sunday

    Time Temperature Precipitation Wind Pressure Humidity
    00:00 +13°C° 0 mm 2 mps 743 mmHg 91%
    01:00 +13°C° 0 mm 2 mps 743 mmHg 92%
    02:00 +12°C° 0 mm 2 mps 743 mmHg 92%
    03:00 +12°C° 0 mm 2 mps 743 mmHg 93%
    04:00 +12°C° 0 mm 2 mps 743 mmHg 93%
    05:00 +10°C° 0 mm 2 mps 743 mmHg 94%
    06:00 +13°C° 0 mm 2 mps 743 mmHg 87%
    07:00 +14°C° 0 mm 3 mps 743 mmHg 81%
    08:00 +16°C° 0 mm 3 mps 743 mmHg 75%
    09:00 +18°C° 0 mm 3 mps 743 mmHg 69%
    10:00 +19°C° 0 mm 4 mps 743 mmHg 64%
    11:00 +20°C° 0 mm 4 mps 743 mmHg 59%
    12:00 +20°C° 0.2 mm 4 mps 743 mmHg 61%
    13:00 +21°C° 0.2 mm 4 mps 743 mmHg 63%
    14:00 +21°C° 0.2 mm 5 mps 743 mmHg 65%
    15:00 +21°C° 0.7 mm 5 mps 742 mmHg 69%
    16:00 +20°C° 0.7 mm 5 mps 742 mmHg 73%
    17:00 +20°C° 0.7 mm 5 mps 742 mmHg 78%
    18:00 +19°C° 0.2 mm 4 mps 742 mmHg 80%
    19:00 +18°C° 0.2 mm 3 mps 742 mmHg 83%
    20:00 +17°C° 0.2 mm 3 mps 742 mmHg 86%
    21:00 +15°C° 0 mm 2 mps 743 mmHg 87%
    22:00 +14°C° 0 mm 2 mps 743 mmHg 89%
    23:00 +13°C° 0 mm 2 mps 743 mmHg 90%

    27 May, Monday

    Time Temperature Precipitation Wind Pressure Humidity
    00:00 +13°C° 0 mm 1 mps 743 mmHg 90%
    01:00 +12°C° 0 mm 1 mps 743 mmHg 90%
    02:00 +12°C° 0 mm 1 mps 744 mmHg 90%
    03:00 +12°C° 0 mm 1 mps 743 mmHg 90%
    04:00 +12°C° 0 mm 2 mps 743 mmHg 90%
    05:00 +12°C° 0 mm 2 mps 743 mmHg 90%
    06:00 +14°C° 0 mm 2 mps 743 mmHg 85%
    07:00 +16°C° 0 mm 3 mps 744 mmHg 80%
    08:00 +18°C° 0 mm 3 mps 744 mmHg 75%
    09:00 +19°C° 0 mm 3 mps 744 mmHg 72%
    10:00 +21°C° 0 mm 4 mps 744 mmHg 68%
    11:00 +22°C° 0 mm 4 mps 743 mmHg 64%
    12:00 +23°C° 0.1 mm 4 mps 743 mmHg 62%
    13:00 +25°C° 0.1 mm 4 mps 743 mmHg 60%
    14:00 +25°C° 0.1 mm 4 mps 742 mmHg 58%
    15:00 +25°C° 0.2 mm 4 mps 742 mmHg 61%
    16:00 +25°C° 0.2 mm 4 mps 742 mmHg 64%
    17:00 +25°C° 0.2 mm 4 mps 742 mmHg 67%
    18:00 +22°C° 0.3 mm 4 mps 742 mmHg 74%
    19:00 +21°C° 0.3 mm 3 mps 742 mmHg 81%
    20:00 +19°C° 0.3 mm 3 mps 742 mmHg 89%
    21:00 +19°C° 0 mm 2 mps 742 mmHg 89%
    22:00 +18°C° 0 mm 2 mps 742 mmHg 90%
    23:00 +19°C° 0 mm 1 mps 742 mmHg 91%

    28 May, Tuesday

    Time Temperature Precipitation Wind Pressure Humidity
    00:00 +18°C° 0 mm 1 mps 742 mmHg 92%
    01:00 +18°C° 0 mm 1 mps 741 mmHg 92%
    02:00 +18°C° 0 mm 1 mps 741 mmHg 92%
    03:00 +18°C° 0.7 mm 1 mps 741 mmHg 94%
    04:00 +17°C° 0.7 mm 2 mps 741 mmHg 95%
    05:00 +17°C° 0.7 mm 2 mps 741 mmHg 96%
    06:00 +17°C° 1.1 mm 2 mps 741 mmHg 95%
    07:00 +18°C° 1.1 mm 3 mps 740 mmHg 95%
    08:00 +18°C° 1.1 mm 3 mps 740 mmHg 94%
    09:00 +20°C° 0.2 mm 4 mps 740 mmHg 90%
    10:00 +21°C° 0.2 mm 4 mps 740 mmHg 85%
    11:00 +22°C° 0.2 mm 4 mps 740 mmHg 81%
    12:00 +23°C° 1.1 mm 4 mps 740 mmHg 79%
    13:00 +23°C° 1.1 mm 4 mps 739 mmHg 78%
    14:00 +25°C° 1.1 mm 3 mps 739 mmHg 76%
    15:00 +24°C° 1.5 mm 3 mps 739 mmHg 79%
    16:00 +24°C° 1.5 mm 3 mps 739 mmHg 81%
    17:00 +24°C° 1.5 mm 2 mps 739 mmHg 84%
    18:00 +23°C° 1.8 mm 2 mps 739 mmHg 85%
    19:00 +21°C° 1.8 mm 2 mps 738 mmHg 87%
    20:00 +20°C° 1.8 mm 2 mps 738 mmHg 88%
    21:00 +19°C° 0.2 mm 2 mps 738 mmHg 89%
    22:00 +19°C° 0.2 mm 2 mps 738 mmHg 90%
    23:00 +19°C° 0.2 mm 1 mps 738 mmHg 91%

    29 May, Wednesday

    Time Temperature Precipitation Wind Pressure Humidity
    00:00 +19°C° 0 mm 1 mps 738 mmHg 92%
    01:00 +17°C° 0 mm 2 mps 738 mmHg 92%
    02:00 +17°C° 0 mm 2 mps 738 mmHg 93%
    03:00 +17°C° 0 mm 2 mps 738 mmHg 94%
    04:00 +16°C° 0 mm 2 mps 738 mmHg 95%
    05:00 +16°C° 0 mm 2 mps 738 mmHg 95%
    06:00 +17°C° 0 mm 3 mps 739 mmHg 93%
    07:00 +18°C° 0 mm 3 mps 739 mmHg 90%
    08:00 +19°C° 0 mm 3 mps 739 mmHg 87%
    09:00 +20°C° 1.1 mm 3 mps 739 mmHg 83%
    10:00 +21°C° 1.1 mm 4 mps 739 mmHg 80%
    11:00 +22°C° 1.1 mm 4 mps 740 mmHg 76%
    12:00 +23°C° 0.8 mm 4 mps 740 mmHg 72%
    13:00 +25°C° 0.8 mm 4 mps 740 mmHg 68%
    14:00 +25°C° 0.8 mm 4 mps 740 mmHg 64%
    15:00 +25°C° 0.6 mm 3 mps 741 mmHg 67%
    16:00 +25°C° 0.6 mm 3 mps 741 mmHg 70%
    17:00 +25°C° 0.6 mm 2 mps 741 mmHg 73%
    18:00 +23°C° 1.1 mm 2 mps 741 mmHg 78%
    19:00 +21°C° 1.1 mm 2 mps 741 mmHg 82%
    20:00 +20°C° 1.1 mm 2 mps 742 mmHg 87%
    21:00 +20°C° 1 mm 1 mps 742 mmHg 89%
    22:00 +19°C° 1 mm 1 mps 742 mmHg 91%
    23:00 +18°C° 1 mm 1 mps 743 mmHg 94%
    Show more